Skip Page Navigation
NASA JPL Caltech
NASA Logo - Jet Propulsion Laboratory + View the NASA Portal
+ Center for Near-Earth Object Studies
JPL Home Earth Solar System Stars & Galaxies Technology
JPL Solar System Dynamics
BODIES ORBITS EPHEMERIDES TOOLS PHYSICAL DATA DISCOVERY FAQ SITE MAP
IMPORTANT: The SSD Announcement email list is now available. Major changes are coming in the near future, including possible hostname and/or URL changes. To be notified of such changes, subscribe to this email list.

Please visit this page for more details.


JPL Small-Body Database Browser
Search: [ help ]  
277894 (2006 KG41)
Classification: Main-belt Asteroid          SPK-ID: 2277894
Ephemeris | Orbit Diagram | Orbital Elements | Mission Design | Physical Parameters | Discovery Circumstances | Close-Approach Data ]

[ show orbit diagram ]
Orbital Elements at Epoch 2458600.5 (2019-Apr-27.0) TDB
Reference: JPL 16 (heliocentric ecliptic J2000)
 Element Value Uncertainty (1-sigma)   Units 
e .1189061551605959 5.9096e-08  
a 3.093338977044449 4.4954e-08 au
q 2.725521932675683 1.6874e-07 au
i 10.90282383660428 5.7441e-06 deg
node 91.0205269865822 4.1182e-05 deg
peri 193.5398655151516 5.3615e-05 deg
M 101.8338512938879 3.7448e-05 deg
tp 2458038.379575290023
(2017-Oct-11.87957529)
0.00020057 TDB
period 1987.19139386745
5.44
4.3318e-05
1.186e-07
d
yr
n .1811602048554427 3.949e-09 deg/d
Q 3.461156021413215 5.0299e-08 au
  Orbit Determination Parameters
   # obs. used (total)      160  
   data-arc span      6716 days (18.39 yr)  
   first obs. used      2001-07-17  
   last obs. used      2019-12-06  
   planetary ephem.      DE431  
   SB-pert. ephem.      SB431-N16  
   condition code      0  
   norm. resid. RMS      .57647  
   source      ORB  
   producer      Otto Matic  
   solution date      2019-Dec-14 17:53:41  

Additional Information
 Earth MOID = 1.70981 au 
 Jupiter MOID = 1.68166 au 
 T_jup = 3.186 
[ show covariance matrix ]

Ephemeris | Orbit Diagram | Orbital Elements | Mission Design | Physical Parameters | Discovery Circumstances | Close-Approach Data ]

Physical Parameter Table
Parameter Symbol Value Units Sigma Reference Notes
absolute magnitude H 15.6   n/a MPO413221  

277894 (2006 KG41)          Discovered 2002-Oct-15 by NEAT at Palomar
Reference: 20110517/Numbers.arcLast Updated: 2011-05-20

[ show close-approach data ]
Alternate Designations
 2006 KG41 = 2011 FO27 
Ephemeris | Orbit Diagram | Orbital Elements | Mission Design | Physical Parameters | Discovery Circumstances | Close-Approach Data ]
ABOUT SSD CREDITS/AWARDS PRIVACY/COPYRIGHT GLOSSARY LINKS
FirstGov 2019-Dec-15 10:44 UT
(server date/time)  
NASA Home Page
Site Manager:   Ryan S. Park
Webmaster  Alan B. Chamberlin